Date String (YYYY-MM-DD hh:mm:ss) UTC,Instrument flags,absolute air pressure of the measurement (hPa),sample flow rate (lpm),inlet stack bypass flow (lpm),air temperature of the measurement (°C),ambient temperature measured by the external sensor (°C),aerosol sample conditioner tube jacket temperature (°C),OPC LED temperature (°C),internal box temperature (°C),relative humidity of the measurement (%),span deviation,mass concentration of particles derived from Lorenz-Mie calculation of OPC scattering (μg/m³),mass concentration of particles derived from Lorenz-Mie calculation of OPC scattering (μg/m³),mass concentration of particles derived from Lorenz-Mie calculation of OPC scattering (μg/m³)
DateTimeUTC,F1_M11,P_M11,Q1_M11,Q2_M11,T1_M11,T2_M11,T3_M11,T4_M11,T5_M11,U1_M11,ZSPAN_M11,X2_M11,X0_M11,X1_M11
2024-01-24 09:00:00,SystemResetWarning,0825.9,5.01,000.00,023.0,022.0,000.0,031.6,024.2,18.1,0002.4,0009.97,0017.07,0009.12
2024-01-24 09:01:00,SystemResetWarning,0825.9,5.00,000.00,023.0,021.9,000.0,031.6,024.2,18.1,0001.9,0010.01,0016.88,0009.20
2024-01-24 09:02:00,SystemResetWarning,0825.9,5.00,000.00,023.0,021.9,000.0,031.6,024.2,18.1,0001.7,0010.08,0017.52,0009.25
2024-01-24 09:03:00,SystemResetWarning,0825.9,5.00,000.00,023.0,021.9,000.0,031.6,024.2,18.1,0001.7,0010.09,0017.35,0009.28
2024-01-24 09:04:00,SystemResetWarning,0825.9,5.00,000.00,023.0,021.8,000.0,031.5,024.2,18.1,0001.4,0010.07,0016.43,0009.32
2024-01-24 09:05:00,SystemResetWarning,0825.9,5.00,000.00,023.0,021.8,000.0,031.5,024.2,18.1,0001.6,0010.08,0016.83,0009.34
2024-01-24 09:06:00,SystemResetWarning,0825.9,5.00,000.00,023.0,021.8,000.0,031.5,024.1,18.2,0001.4,0010.11,0016.76,0009.39
2024-01-24 09:07:00,SystemResetWarning,0825.9,5.01,000.00,022.9,021.8,000.0,031.5,024.1,18.2,0001.8,0010.14,0016.74,0009.42
2024-01-24 09:08:00,SystemResetWarning,0825.9,5.00,000.00,022.9,021.7,000.0,031.5,024.0,18.2,0002.0,0010.19,0016.61,0009.46
2024-01-24 09:09:00,SystemResetWarning,0825.9,5.00,000.00,022.9,021.7,000.0,031.4,024.0,18.3,0002.1,0010.24,0016.40,0009.51
2024-01-24 09:10:00,SystemResetWarning,0826.0,5.00,000.00,022.9,021.7,000.0,031.4,024.0,18.3,0002.0,0010.31,0016.38,0009.59
2024-01-24 09:11:00,SystemResetWarning,0825.9,5.00,000.00,022.8,021.6,000.0,031.4,023.9,18.3,0002.2,0010.35,0016.56,0009.63
2024-01-24 09:12:00,SystemResetWarning,0826.0,4.99,000.00,022.8,021.6,000.0,031.4,023.9,18.3,0002.4,0010.37,0016.70,0009.63
2024-01-24 09:13:00,SystemResetWarning,0826.0,5.00,000.00,022.8,021.7,000.0,031.4,023.9,18.4,0002.6,0010.39,0016.22,0009.65
2024-01-24 09:14:00,SystemResetWarning,0826.0,5.00,000.00,022.8,021.6,000.0,031.3,023.9,18.4,0002.6,0010.34,0015.66,0009.63
2024-01-24 09:15:00,SystemResetWarning,0826.0,5.00,000.00,022.8,021.6,000.0,031.3,023.9,18.4,0003.0,0010.43,0015.85,0009.68
2024-01-24 09:16:00,SystemResetWarning,0826.0,5.01,000.00,022.7,021.6,000.0,031.3,023.9,18.4,0003.0,0010.44,0015.47,0009.70
2024-01-24 09:17:00,SystemResetWarning,0826.0,4.99,000.00,022.7,021.6,000.0,031.3,023.8,18.5,0003.1,0010.40,0015.21,0009.68
2024-01-24 09:18:00,SystemResetWarning,0826.0,5.00,000.00,022.7,021.6,000.0,031.3,023.8,18.5,0003.1,0010.39,0014.71,0009.66
2024-01-24 09:19:00,SystemResetWarning,0825.9,5.00,000.00,022.7,021.5,000.0,031.2,023.8,18.5,0003.2,0010.40,0014.54,0009.64
2024-01-24 09:20:00,SystemResetWarning,0825.9,5.00,000.00,022.6,021.5,000.0,031.2,023.8,18.5,0003.1,0010.39,0014.60,0009.61
2024-01-24 09:21:00,SystemResetWarning,0825.9,5.00,000.00,022.6,021.5,000.0,031.2,023.8,18.5,0003.0,0010.38,0014.89,0009.56
2024-01-24 09:22:00,SystemResetWarning,0825.9,5.00,000.00,022.6,021.4,000.0,031.2,023.8,18.5,0003.0,0010.36,0016.15,0009.53
2024-01-24 09:23:00,SystemResetWarning,0825.9,5.00,000.00,022.6,021.4,000.0,031.2,023.8,18.5,0002.9,0010.37,0016.24,0009.53
2024-01-24 09:24:00,SystemResetWarning,0825.9,5.00,000.00,022.6,021.4,000.0,031.1,023.8,18.5,0002.8,0010.34,0016.21,0009.52
2024-01-24 09:25:00,SystemResetWarning,0825.9,5.00,000.00,022.6,021.4,000.0,031.1,023.8,18.5,0002.4,0010.42,0016.44,0009.54
2024-01-24 09:26:00,SystemResetWarning,0825.9,5.00,000.00,022.6,021.4,000.0,031.1,023.8,18.5,0001.9,0010.39,0016.64,0009.50
2024-01-24 09:27:00,SystemResetWarning,0825.9,5.00,000.00,022.6,021.4,000.0,031.1,023.8,18.6,0001.9,0010.37,0016.75,0009.50
2024-01-24 09:28:00,SystemResetWarning,0825.9,5.00,000.00,022.6,021.4,000.0,031.1,023.8,18.6,0001.8,0010.40,0017.61,0009.52
2024-01-24 09:29:00,SystemResetWarning,0825.9,5.00,000.00,022.6,021.4,000.0,031.1,023.8,18.6,0001.8,0010.42,0017.63,0009.55
2024-01-24 09:30:00,SystemResetWarning,0825.9,5.00,000.00,022.5,021.4,000.0,031.1,023.8,18.5,0001.5,0010.48,0017.86,0009.61
2024-01-24 09:31:00,SystemResetWarning,0825.9,4.99,000.00,022.5,021.4,000.0,031.0,023.8,18.5,0000.8,0010.55,0017.99,0009.68
2024-01-24 09:32:00,SystemResetWarning,0825.9,5.00,000.00,022.5,021.4,000.0,031.0,023.7,18.5,0000.9,0010.60,0018.02,0009.74
2024-01-24 09:33:00,SystemResetWarning,0825.9,5.00,000.00,022.5,021.4,000.0,031.0,023.7,18.5,0000.8,0010.65,0016.74,0009.81
2024-01-24 09:34:00,SystemResetWarning,0825.9,5.00,000.00,022.5,021.4,000.0,031.0,023.7,18.6,0000.9,0010.73,0016.73,0009.87
2024-01-24 09:35:00,SystemResetWarning,0825.9,5.00,000.00,022.5,021.4,000.0,031.0,023.7,18.6,0001.2,0010.80,0016.96,0009.92
2024-01-24 09:36:00,SystemResetWarning,0825.9,5.00,000.00,022.5,021.4,000.0,031.0,023.7,18.6,0001.6,0010.86,0017.00,0009.99
2024-01-24 09:37:00,SystemResetWarning,0825.9,5.00,000.00,022.5,021.3,000.0,031.0,023.7,18.6,0001.9,0010.89,0016.72,0010.05
2024-01-24 09:38:00,SystemResetWarning,0825.9,5.00,000.00,022.4,021.3,000.0,031.0,023.7,18.6,0001.6,0010.92,0017.81,0010.07
2024-01-24 09:39:00,SystemResetWarning,0825.9,5.00,000.00,022.4,021.3,000.0,030.9,023.7,18.6,0001.4,0010.98,0017.02,0010.13
2024-01-24 09:40:00,SystemResetWarning,0825.9,5.00,000.00,022.4,021.3,000.0,030.9,023.7,18.6,0001.7,0011.02,0017.33,0010.17
2024-01-24 09:41:00,SystemResetWarning,0825.9,5.00,000.00,022.4,021.3,000.0,030.9,023.7,18.6,0001.8,0011.00,0017.51,0010.19
2024-01-24 09:42:00,SystemResetWarning,0825.9,5.00,000.00,022.4,021.3,000.0,030.9,023.6,18.7,0001.9,0010.99,0017.30,0010.19
2024-01-24 09:43:00,SystemResetWarning,0825.9,5.00,000.00,022.4,021.3,000.0,030.9,023.6,18.7,0002.2,0010.99,0017.31,0010.18
2024-01-24 09:44:00,SystemResetWarning,0825.9,5.00,000.00,022.4,021.3,000.0,030.9,023.6,18.7,0002.0,0011.02,0017.54,0010.18
2024-01-24 09:45:00,SystemResetWarning,0825.8,5.00,000.00,022.4,021.3,000.0,030.9,023.6,18.7,0002.0,0010.99,0017.89,0010.18
2024-01-24 09:46:00,SystemResetWarning,0825.9,5.00,000.00,022.4,021.3,000.0,030.9,023.6,18.7,0001.8,0010.97,0017.82,0010.18
2024-01-24 09:47:00,SystemResetWarning,0825.9,5.00,000.00,022.4,021.3,000.0,030.9,023.6,18.7,0001.9,0010.97,0017.93,0010.18
2024-01-24 09:48:00,SystemResetWarning,0825.9,4.99,000.00,022.3,021.2,000.0,030.8,023.5,18.7,0001.8,0010.94,0017.88,0010.16
2024-01-24 09:49:00,SystemResetWarning,0825.9,5.00,000.00,022.3,021.2,000.0,030.8,023.5,18.8,0001.8,0010.91,0016.73,0010.12
2024-01-24 09:50:00,SystemResetWarning,0825.9,5.00,000.00,022.3,021.2,000.0,030.8,023.4,18.8,0001.8,0010.86,0016.50,0010.08
2024-01-24 09:51:00,SystemResetWarning,0825.9,5.00,000.00,022.3,021.2,000.0,030.8,023.4,18.8,0001.3,0010.76,0016.09,0009.99
2024-01-24 09:52:00,SystemResetWarning,0825.9,5.00,000.00,022.2,021.2,000.0,030.8,023.3,18.9,0001.6,0010.73,0015.92,0009.91
2024-01-24 09:53:00,SystemResetWarning,0825.9,5.00,000.00,022.2,021.1,000.0,030.8,023.3,18.9,0001.9,0010.68,0015.94,0009.86
2024-01-24 09:54:00,SystemResetWarning,0825.9,4.99,000.00,022.2,021.1,000.0,030.8,023.3,19.0,0001.6,0010.57,0015.72,0009.79
2024-01-24 09:55:00,SystemResetWarning,0825.9,5.00,000.00,022.2,021.0,000.0,030.7,023.3,19.0,0001.9,0010.49,0015.53,0009.72
2024-01-24 09:56:00,SystemResetWarning,0826.0,5.00,000.00,022.2,021.1,000.0,030.7,023.3,18.9,0002.0,0010.43,0015.69,0009.67
2024-01-24 09:57:00,SystemResetWarning,0826.0,5.01,000.00,022.2,021.1,000.0,030.7,023.4,18.9,0002.1,0010.38,0015.53,0009.65
2024-01-24 09:58:00,SystemResetWarning,0826.0,5.00,000.00,022.2,021.1,000.0,030.7,023.4,18.9,0001.5,0010.37,0015.36,0009.61
2024-01-24 09:59:00,SystemResetWarning,0826.0,5.00,000.00,022.2,021.1,000.0,030.7,023.5,18.8,0001.3,0010.32,0015.34,0009.57
